Regional Weather Roundup
Issued by NWS

Home | Current Version | Previous Version | Text Only | Print | Product List | Glossary Off
Versions: 1 2 3 4 5 6 7 8 9 10 11 12 13 14 15 16 17 18 19 20 21 22 23 24 25 26 27 28 29 30 31 32 33 34 35 36 37 38 39 40 41 42 43 44 45 46 47 48 49 50

000
ASUS43 KMPX 221910
RWRMN
WEATHER ROUNDUP FOR MINNESOTA
NATIONAL WEATHER SERVICE TWIN CITIES/CHANHASSEN MN
200 PM CDT TUE AUG 22 2017


NOTE: "FAIR" INDICATES FEW OR NO CLOUDS BELOW 12,000 FEET WITH NO
SIGNIFICANT WEATHER AND/OR OBSTRUCTIONS TO VISIBILITY. N/A MEANS
CURRENT SKY AND/OR WEATHER CONDITIONS ARE NOT AVAILABLE.

MNZ060>063-068>070-222000-
   Twin Cities Metro

CITY           SKY/WX    TMP DP  RH WIND       PRES   REMARKS
TWIN CITIES    MOSUNNY   75  48  38 NW22G29   30.04R
ST PAUL        MOSUNNY   73  48  41 W23G35    30.03S
CRYSTAL        MOSUNNY   73  46  38 W17G25    30.02S
BLAINE         PTSUNNY   75  48  38 NW17G28   30.02F
LAKEVILLE      PTSUNNY   70  54  56 W12G18    30.05F
EDEN PRAIRIE   MOSUNNY   75  46  35 NW18G28   30.04S
SOUTH ST PAUL  SUNNY     74  45  35 NW18      30.03S
LAKE ELMO      FAIR      72  50  46 NW12G21   30.04S
$$
MNZ001>005-007-008-013>017-022>024-027-028-222000-
   Northwest Minnesota

CITY           SKY/WX    TMP DP  RH WIND       PRES   REMARKS
BEMIDJI        PTSUNNY   72  46  40 W22G31    30.02S
HALLOCK        MOSUNNY   73  41  31 NW23G35   30.02S HAZE
ROSEAU         MOSUNNY   70  54  56 NW17G26   29.99S
WARROAD        MOSUNNY   64  57  77 NW12G18   29.99R
THIEF RVR FALL PTSUNNY   72  42  34 NW23G31   30.04S
CROOKSTON      MOSUNNY   73  43  33 N23G30    30.05S
FOSSTON        MOSUNNY   72  41  33 NW17G28   30.05S
DETROIT LAKES  SUNNY     70  43  37 NW22G30   30.08S
MOORHEAD       SUNNY     73  41  31 NW22      30.08F
PARK RAPIDS    PTSUNNY   71  45  39 NW21G30   30.04S
MAHNOMEN       FAIR      71  43  36 NW16G25   30.05S
$$
MNZ006-009>011-018-025>026-222000-
   North Central Minnesota

CITY           SKY/WX    TMP DP  RH WIND       PRES   REMARKS
BAUDETTE       LGT RAIN  63  56  78 NW13      29.96R
FLAG ISLAND    DRIZZLE   64  54  68 NW12      29.95S
INTL FALLS     PTSUNNY   67  52  58 NW13G24   29.92S
WASKISH        CLOUDY    68  52  56 NW14G25   29.98R
BIG FORK       MOSUNNY   66  52  59 W7        29.96S
LONGVILLE      CLOUDY    68  46  45 NW7G22    30.01S
GRAND RAPIDS   CLOUDY    65  51  60 NW15      29.99S
CRANE LAKE     PTSUNNY   63  52  67 NW7       29.92S
ORR            CLOUDY    66  52  59 W9G16     29.90S
COOK           CLOUDY    63  54  72 W16       29.93S
WALKER         CLOUDY    68  43  40 NW21G28   30.01S
$$
MNZ012-019>021-037-222000-
   Northeast Minnesota

CITY           SKY/WX    TMP DP  RH WIND       PRES   REMARKS
DULUTH         PTSUNNY   65  52  62 W20G29    29.94R
ELY            CLOUDY    64  48  55 W12G28    29.89S
HIBBING        CLOUDY    63  50  62 NW17G23   29.95S
EVELETH        SUNNY     64  44  47 NW12G21   29.95S
DULUTH HARBOR  PTSUNNY   70  54  56 W16       29.94R
TWO HARBORS    MOSUNNY   70  55  60 NW10G23   29.89S
SILVER BAY     PTSUNNY   66  52  59 NW7       29.88S
GRAND MARAIS     N/A     70  52  52 MISG      29.82R
G MARAIS ARPRT MOSUNNY   64  45  48 NW10G21   29.86
$$
MNZ029>031-032-039>041-046>048-054>057-064-222000-
   West Central Minnesota

CITY           SKY/WX    TMP DP  RH WIND       PRES   REMARKS
FERGUS FALLS   MOSUNNY   70  48  46 NW18G25   30.09S
WHEATON        SUNNY     72  45  37 W13G23    30.13F
MORRIS         SUNNY     73  46  38 NW15G25   30.10S
ALEXANDRIA     SUNNY     70  47  43 NW15G25   30.11S
ELBOW LAKE     FAIR      70  47  42 NW16      30.11S
WADENA         MOSUNNY   68  48  49 NW13G21   30.06F
GLENWOOD       SUNNY     72  46  40 NW17G24   30.10S
APPLETON       SUNNY     73  43  33 NW14G26   30.12R
BENSON         MOSUNNY   75  45  33 N20G25    30.12S
ORTONVILLE     SUNNY     72  46  40 MISG      30.13S
MADISON        MOSUNNY   73  46  38 NW17G25   30.13S
WILLMAR        FAIR      72  48  43 NW21G26   30.11F
$$
MNZ033>034-036-042>043-049>051-058-059-222000-
   Central Minnesota

CITY           SKY/WX    TMP DP  RH WIND       PRES   REMARKS
ST CLOUD       MOSUNNY   71  46  40 NW17      30.05S
SAUK CENTRE    FAIR      69  49  48 NW18      30.09S
PAYNESVILLE    MOSUNNY   70  49  48 NW16G24   30.09S
AITKIN         MOSUNNY   68  48  49 NW10G22   30.00S
PINE RIVER     PTSUNNY   66  45  45 NW14G30   30.05F
BRAINERD       PTSUNNY   69  46  43 NW14      30.03S
STAPLES        MOSUNNY   72  45  37 NW16G26   30.05F
LONG PRAIRIE   FAIR      68  46  45 W14G24    30.08S
LITTLE FALLS   PTSUNNY   70  43  37 W16G23    30.06S
LITCHFIELD     MOSUNNY   72  50  46 NW16G26   30.09S
BUFFALO        MOSUNNY   73  47  39 W14G21    30.06S
MAPLE LAKE     MOSUNNY   72  51  47 NW14G20   30.07S
HUTCHINSON     MOSUNNY   72  51  46 W17G23    30.09S
$$
MNZ037-044-045-052-053-222000-
   East Central Minnesota

CITY           SKY/WX    TMP DP  RH WIND       PRES   REMARKS
PRINCETON      MOSUNNY   73  48  40 W16G22    30.04S
MORA           MOSUNNY   70  46  43 NW14G22   30.03S
CAMBRIDGE      MOSUNNY   73  54  49 W14G23    30.03R
RUSH CITY      PTSUNNY   71  48  43 NW12G21   30.01S HAZE
MOOSE LAKE     MOSUNNY   70  50  49 W10G17    29.96F
HINCKLEY       CLOUDY    70  50  49 NW10G16   30.00S
CLOQUET        CLOUDY    66  48  52 W13G18    29.97R
MCGREGOR       PTSUNNY   68  46  45 NW15G23   30.00S
$$
MNZ071>073-080-081-089-090-097-098-222000-
   Southwest Minnesota

CITY           SKY/WX    TMP DP  RH WIND       PRES   REMARKS
MONTEVIDEO     SUNNY     75  50  41 N17G23    30.12S
GRANITE FALLS  MOSUNNY   73  48  40 NW14G24   30.13F
CANBY          SUNNY     74  46  36 W15G22    30.15S
MARSHALL       SUNNY     71  48  43 NW18G26   30.13S
REDWOOD FALLS  MOSUNNY   73  47  39 NW12G23   30.11S
OLIVIA         SUNNY     72  50  46 NW18      30.10F
PIPESTONE      SUNNY     72  45  37 N14G20    30.17S
WINDOM         SUNNY     72  46  40 W14G21    30.14S
WORTHINGTON    SUNNY     71  48  43 NW15G23   30.16
JACKSON        SUNNY     70  50  49 NW15      30.15S
TRACY          SUNNY     71  51  49 NW16G22   30.14F
SLAYTON        SUNNY     70  42  36 NW14G22   30.17R
$$
MNZ065>067-074>077-082>085-091>093-222000-
   South Central Minnesota

CITY           SKY/WX    TMP DP  RH WIND       PRES   REMARKS
MANKATO        MOSUNNY   71  51  49 NW17G24   30.09S
NEW ULM        SUNNY     72  48  43 NW15G23   30.10S
ST JAMES       SUNNY     72  48  43 NW16G24   30.12F
FAIRMONT       SUNNY     71  51  49 NW15G21   30.12F
GLENCOE        MOSUNNY   72  55  55 W18G26    30.07S
FARIBAULT      SUNNY     72  52  49 W10G21    30.07F
OWATONNA       MOSUNNY   72  54  53 NW16G23   30.08S
WASECA         MOSUNNY   72  54  53 NW13G22   30.10S
ALBERT LEA     SUNNY     72  52  49 NW14      30.09S
$$
MNZ078>079-086>088-094>096-222000-
   Southeast Minnesota

CITY           SKY/WX    TMP DP  RH WIND       PRES   REMARKS
ROCHESTER      SUNNY     69  51  52 NW17G29   30.06S
RED WING       MOSUNNY   73  43  33 N13G20    30.01F
STANTON        MOSUNNY   72  52  49 W15G25    30.04S
DODGE CENTER   SUNNY     70  48  46 NW16G23   30.07S
WINONA         MOSUNNY   73  52  46 NW13G18   30.02S
AUSTIN         SUNNY     70  48  46 NW15G23   30.07F
PRESTON        MOSUNNY   68  50  51 NW16G25   30.06S
$$
ABBREVIATIONS USED IN REMARKS
   TC - TEMPERATURES IN CELSIUS
  WCI - WIND CHILL INDEX
   HX - HEAT INDEX
  VSB - VISIBILITY
$$



USA.gov is the U.S. government's official web portal to all federal, state and local government web resources and services.